Powrót do katalogu

ATLAS 5 CENTAUR DEB

LostHEO
NORAD 43969·DEBRIS·🇺🇸 United States

Wystrzelony Sep 17, 2014 z Cape Canaveral Space Force Station

Loading…

Następne Przeloty (najbliższe 24 godziny)

TLE

NieaktualneSource: Space-Track

Epoka: Feb 23, 2026, 20:16 UTC

1 43969U 14055Y   26054.84512084 -.00000034  00000-0  00000-0 0  9993
2 43969  19.3984 160.4739 5089053 129.2912 288.0175  1.77735719 29350

Śledź ATLAS 5 CENTAUR DEB w czasie rzeczywistym z AllMySat

Download on the App Store